�N����,����,�~����,�C��,���x,�C��,����,���ϕ���,�ő�u�ԕ���,�ő厞����,���˗�,�I�_���x,�n�����x,�ő啗���N��,DTYPE
"17/09/14","00:10",0.0,20.9,86.5,1010.9,298.9,0.8,1.8,329.2,0.00,18.6,24.0,"00:08:24",1
"17/09/14","00:20",0.0,20.8,87.1,1011.2,312.3,1.1,1.4,313.1,0.00,18.6,23.8,"00:12:04",1
"17/09/14","00:30",0.0,20.5,88.2,1011.4,307.0,0.8,1.3,313.3,0.00,18.5,24.1,"00:24:40",1
"17/09/14","00:40",0.0,20.5,88.5,1011.2,289.5,0.8,1.2,256.1,0.00,18.6,23.9,"00:31:42",1
"17/09/14","00:50",0.0,20.4,89.1,1010.9,315.6,1.0,1.8,325.3,0.00,18.6,24.0,"00:48:24",1
"17/09/14","01:00",0.0,20.4,89.3,1011.2,323.7,1.1,2.1,327.0,0.00,18.6,23.9,"00:51:52",1
"17/09/14","01:10",0.0,20.5,89.4,1011.2,339.4,1.3,2.2,339.7,0.00,18.7,23.7,"01:04:40",1
"17/09/14","01:20",0.0,20.4,89.4,1010.9,325.3,1.3,2.1,345.6,0.00,18.6,23.8,"01:11:52",1
"17/09/14","01:30",0.0,20.5,89.4,1011.2,335.0,1.2,2.1,344.8,0.00,18.7,23.8,"01:22:40",1
"17/09/14","01:40",0.0,20.3,89.4,1011.4,315.3,1.0,1.3,332.5,0.00,18.5,23.7,"01:35:12",1
"17/09/14","01:50",0.0,20.3,90.1,1011.4,336.4,1.2,1.9,334.6,0.00,18.7,23.7,"01:44:00",1
"17/09/14","02:00",0.0,20.3,90.1,1011.4,330.5,1.2,2.1,342.3,0.00,18.7,23.5,"01:50:40",1
"17/09/14","02:10",0.0,20.2,90.1,1011.2,319.0,0.8,1.3,325.5,0.00,18.6,23.6,"02:08:16",1
"17/09/14","02:20",0.0,20.2,90.3,1011.2,311.5,0.8,1.4,309.8,0.00,18.6,23.6,"02:14:32",1
"17/09/14","02:30",0.0,20.3,90.3,1011.2,316.6,1.1,1.8,321.3,0.00,18.7,23.4,"02:21:04",1
"17/09/14","02:40",0.0,20.3,89.8,1010.9,306.1,0.8,1.6,346.3,0.00,18.6,23.5,"02:35:36",1
"17/09/14","02:50",0.0,20.1,90.2,1010.9,323.7,1.1,2.1,337.1,0.00,18.5,23.5,"02:45:12",1
"17/09/14","03:00",0.0,20.0,90.7,1010.9,321.3,1.0,1.9,335.3,0.00,18.5,23.2,"02:55:44",1
"17/09/14","03:10",0.0,20.0,90.8,1010.7,330.5,1.2,2.1,318.7,0.00,18.5,23.2,"03:07:28",1
"17/09/14","03:20",0.0,20.0,90.5,1010.7,314.2,1.0,1.4,305.2,0.00,18.4,23.1,"03:11:44",1
"17/09/14","03:30",0.0,19.8,90.6,1011.2,310.1,0.8,1.2,330.3,0.00,18.3,23.2,"03:22:56",1
"17/09/14","03:40",0.0,19.7,91.2,1010.9,294.3,1.1,1.9,321.2,0.00,18.3,23.1,"03:35:04",1
"17/09/14","03:50",0.0,19.7,91.1,1010.9,308.8,1.0,2.2,345.0,0.00,18.2,23.2,"03:41:04",1
"17/09/14","04:00",0.0,19.8,91.3,1011.2,310.9,1.1,2.1,338.6,0.00,18.4,22.9,"03:59:52",1
"17/09/14","04:10",0.0,20.1,91.2,1011.4,330.1,1.6,2.9,327.9,0.00,18.7,23.1,"04:03:04",1
"17/09/14","04:20",0.0,20.4,90.5,1011.2,333.2,1.6,2.9,335.0,0.00,18.8,23.1,"04:10:08",1
"17/09/14","04:30",0.0,20.4,90.0,1011.2,338.6,1.2,2.1,344.8,0.00,18.7,23.0,"04:29:36",1
"17/09/14","04:40",0.0,20.5,89.6,1011.2,324.0,1.3,2.6,338.0,0.00,18.8,23.2,"04:32:40",1
"17/09/14","04:50",0.0,20.5,89.5,1011.6,333.0,1.2,2.6,324.7,0.00,18.8,23.2,"04:45:36",1
"17/09/14","05:00",0.0,20.5,89.3,1011.4,342.4,1.5,2.4,341.1,0.00,18.7,22.8,"04:50:56",1
"17/09/14","05:10",0.0,20.5,89.3,1011.2,328.9,1.0,2.0,342.7,0.00,18.7,22.9,"05:01:36",1
"17/09/14","05:20",0.0,20.4,89.4,1011.4,338.5,1.2,2.7,349.6,0.00,18.6,23.0,"05:12:56",1
"17/09/14","05:30",0.0,20.4,89.4,1011.2,333.2,1.1,2.4,337.3,0.00,18.6,22.9,"05:21:12",1
"17/09/14","05:40",0.0,20.5,89.4,1011.4,336.2,1.2,2.8,333.3,0.00,18.7,22.9,"05:30:16",1
"17/09/14","05:50",0.0,20.5,89.2,1012.1,344.2,1.0,1.6,350.1,0.00,18.7,22.9,"05:40:48",1
"17/09/14","06:00",0.0,20.4,89.3,1011.6,336.9,0.8,1.6,332.7,0.00,18.6,22.8,"05:57:20",1
"17/09/14","06:10",0.0,20.5,89.5,1011.9,327.8,1.2,3.4,338.9,0.00,18.8,22.8,"06:09:28",1
"17/09/14","06:20",0.0,20.8,88.9,1011.9,344.8,1.3,2.4,339.4,0.00,18.9,22.9,"06:10:16",1
"17/09/14","06:30",0.0,20.9,88.6,1011.9,333.3,1.5,3.2,304.7,0.01,19.0,22.8,"06:28:24",1
"17/09/14","06:40",0.0,21.1,88.1,1012.3,330.8,1.6,2.9,345.6,0.02,19.1,22.8,"06:32:08",1
"17/09/14","06:50",0.0,21.4,87.7,1012.1,329.6,1.2,1.8,335.6,0.03,19.3,22.9,"06:42:32",1
"17/09/14","07:00",0.0,21.6,86.8,1012.3,344.3,1.3,2.4,338.0,0.05,19.3,22.7,"06:57:20",1
"17/09/14","07:10",0.0,21.9,85.1,1012.1,318.3,1.8,3.9,340.7,0.05,19.3,22.8,"07:02:00",1
"17/09/14","07:20",0.0,22.4,84.6,1012.3,334.2,1.7,2.7,351.1,0.07,19.7,22.9,"07:11:12",1
"17/09/14","07:30",0.0,22.9,82.7,1012.1,349.2,1.0,1.8,357.9,0.10,19.8,23.0,"07:29:52",1
"17/09/14","07:40",0.0,23.4,78.8,1011.9,345.9,1.3,3.4,342.4,0.13,19.6,23.0,"07:39:28",1
"17/09/14","07:50",0.0,23.8,77.0,1011.9,311.4,1.2,2.2,342.3,0.14,19.6,22.8,"07:40:08",1
"17/09/14","08:00",0.0,24.1,76.1,1012.1,308.9,1.2,2.8,325.1,0.14,19.7,23.0,"07:56:00",1
"17/09/14","08:10",0.0,24.7,74.4,1012.1,304.5,1.0,2.7,343.7,0.19,19.9,23.3,"08:01:36",1
"17/09/14","08:20",0.0,24.7,73.5,1012.1,305.9,1.2,2.6,331.2,0.19,19.7,23.4,"08:14:24",1
"17/09/14","08:30",0.0,25.3,70.4,1011.6,340.0,1.2,2.5,350.2,0.26,19.6,23.3,"08:26:16",1
"17/09/14","08:40",0.0,25.4,69.1,1011.6,340.2,2.0,4.2,345.5,0.29,19.4,23.3,"08:30:02",1
"17/09/14","08:50",0.0,25.5,68.8,1011.6,341.5,1.8,4.1,340.9,0.26,19.4,23.7,"08:43:36",1
"17/09/14","09:00",0.0,25.7,67.9,1011.6,346.3,2.5,4.5,350.3,0.33,19.4,23.6,"08:52:40",1
"17/09/14","09:10",0.0,26.1,66.4,1011.2,337.0,2.0,6.0,333.9,0.34,19.4,23.7,"09:03:28",1
"17/09/14","09:20",0.0,26.4,63.6,1011.2,350.0,2.1,5.5,341.9,0.37,19.0,23.9,"09:18:32",1
"17/09/14","09:30",0.0,26.7,63.9,1010.9,344.4,2.3,5.8,340.6,0.40,19.3,24.0,"09:20:48",1
"17/09/14","09:40",0.0,26.9,61.9,1010.2,344.7,2.3,4.5,350.0,0.44,19.0,24.1,"09:33:36",1
"17/09/14","09:50",0.0,26.9,58.1,1010.2,342.1,2.7,5.4,352.5,0.45,18.0,24.2,"09:41:52",1
"17/09/14","10:00",0.0,27.5,57.2,1010.4,343.7,2.1,7.4,342.0,0.47,18.3,24.4,"09:52:08",1
"17/09/14","10:10",0.0,27.5,57.6,1010.4,346.2,2.3,4.2,348.8,0.49,18.4,24.4,"10:03:12",1
"17/09/14","10:20",0.0,28.1,54.0,1010.4,343.1,2.0,4.3,345.1,0.50,18.0,24.7,"10:12:16",1
"17/09/14","10:30",0.0,28.1,56.0,1010.4,336.2,2.1,3.3,350.9,0.52,18.5,24.9,"10:22:32",1
"17/09/14","10:40",0.0,28.3,54.1,1010.2,339.2,2.2,4.5,347.1,0.53,18.2,25.1,"10:30:02",1
"17/09/14","10:50",0.0,28.7,52.9,1010.4,337.8,1.7,3.6,336.9,0.54,18.2,25.2,"10:47:20",1
"17/09/14","11:00",0.0,28.8,52.5,1010.4,1.7,2.0,3.9,6.1,0.56,18.2,25.4,"10:53:44",1
"17/09/14","11:10",0.0,28.6,50.3,1010.7,351.5,1.8,4.8,354.9,0.56,17.3,25.6,"11:09:20",1
"17/09/14","11:20",0.0,28.4,51.1,1010.2,354.1,2.7,4.4,19.8,0.56,17.4,25.6,"11:11:04",1
"17/09/14","11:30",0.0,28.5,52.0,1010.4,341.9,2.6,5.6,337.4,0.56,17.7,25.9,"11:23:12",1
"17/09/14","11:40",0.0,27.9,54.4,1010.2,343.2,2.6,4.4,6.0,0.47,17.9,26.0,"11:39:04",1
"17/09/14","11:50",0.0,28.5,52.6,1010.2,344.5,2.3,6.2,353.3,0.55,17.9,26.2,"11:45:12",1
"17/09/14","12:00",0.0,28.8,48.8,1010.2,332.9,2.3,4.1,333.5,0.57,17.0,26.3,"11:50:56",1
"17/09/14","12:10",0.0,29.2,49.7,1010.2,342.4,2.0,4.8,349.6,0.57,17.7,26.6,"12:06:08",1
"17/09/14","12:20",0.0,29.1,51.7,1010.2,344.7,2.3,5.2,346.2,0.58,18.2,26.7,"12:18:08",1
"17/09/14","12:30",0.0,27.9,51.0,1010.0,346.9,2.8,7.0,337.9,0.46,16.9,26.8,"12:22:32",1
"17/09/14","12:40",0.0,27.4,52.8,1009.7,353.6,2.1,4.1,337.8,0.27,17.0,26.9,"12:34:08",1
"17/09/14","12:50",0.0,27.3,52.6,1009.0,343.7,2.5,5.6,349.1,0.27,16.8,26.8,"12:48:32",1
"17/09/14","13:00",0.0,27.4,53.2,1009.0,345.1,2.6,5.0,356.9,0.32,17.1,26.7,"12:54:40",1
"17/09/14","13:10",0.0,27.3,53.5,1008.8,341.5,2.6,5.2,355.1,0.31,17.1,26.8,"13:01:04",1
"17/09/14","13:20",0.0,27.7,54.3,1008.6,342.1,2.1,4.5,349.2,0.33,17.7,26.7,"13:15:12",1
"17/09/14","13:30",0.0,27.0,53.3,1008.3,341.7,2.8,5.8,343.8,0.30,16.7,26.6,"13:22:40",1
"17/09/14","13:40",0.0,27.1,53.9,1008.1,333.4,2.6,4.8,339.3,0.29,17.0,26.6,"13:34:08",1
"17/09/14","13:50",0.0,27.1,54.5,1008.3,335.4,2.8,5.6,340.1,0.28,17.2,26.6,"13:48:16",1
"17/09/14","14:00",0.0,27.6,53.4,1008.3,339.1,2.7,4.9,329.2,0.36,17.3,26.8,"13:51:04",1
"17/09/14","14:10",0.0,27.5,53.8,1008.1,333.6,2.3,4.4,3.0,0.34,17.3,26.8,"14:03:04",1
"17/09/14","14:20",0.0,27.5,52.7,1008.6,349.5,2.7,5.4,332.9,0.37,17.0,26.6,"14:16:56",1
"17/09/14","14:30",0.0,27.9,51.9,1008.8,339.8,2.7,6.8,327.8,0.46,17.2,26.7,"14:21:36",1
"17/09/14","14:40",0.0,26.8,53.9,1008.3,345.3,3.0,6.8,342.7,0.25,16.7,26.3,"14:32:48",1
"17/09/14","14:50",0.0,26.2,56.4,1008.1,339.0,2.3,5.1,333.6,0.16,16.9,26.6,"14:46:24",1
"17/09/14","15:00",0.0,26.8,54.3,1008.3,340.6,2.2,4.8,321.2,0.26,16.8,26.6,"14:53:52",1
"17/09/14","15:10",0.0,26.6,55.0,1008.3,333.1,2.6,5.6,339.5,0.25,16.9,26.5,"15:07:32",1
"17/09/14","15:20",0.0,26.2,52.6,1008.3,339.6,2.3,4.9,351.1,0.21,15.8,26.6,"15:14:00",1
"17/09/14","15:30",0.0,26.3,55.1,1008.3,336.8,2.3,5.2,339.3,0.22,16.6,26.5,"15:22:00",1
"17/09/14","15:40",0.0,26.2,53.6,1008.8,343.4,2.0,4.1,342.2,0.18,16.1,26.4,"15:30:08",1
"17/09/14","15:50",0.0,25.8,54.8,1008.8,344.1,1.8,3.9,331.6,0.14,16.1,26.3,"15:48:32",1
"17/09/14","16:00",0.0,25.4,56.9,1009.0,333.4,2.2,4.4,309.4,0.12,16.3,26.3,"15:50:02",1
"17/09/14","16:10",0.0,25.1,56.4,1009.3,330.4,2.3,4.9,326.3,0.10,15.9,26.3,"16:09:20",1
"17/09/14","16:20",0.0,25.0,58.6,1009.3,331.3,1.7,5.0,340.6,0.09,16.4,26.3,"16:11:20",1
"17/09/14","16:30",0.0,24.9,58.2,1009.5,332.6,2.2,5.2,343.2,0.08,16.2,25.8,"16:28:08",1
"17/09/14","16:40",0.0,24.7,58.8,1009.7,310.8,1.5,3.3,324.0,0.07,16.1,26.1,"16:39:20",1
"17/09/14","16:50",0.0,24.5,58.6,1010.0,334.7,1.7,4.0,331.8,0.06,15.9,25.7,"16:41:44",1
"17/09/14","17:00",0.0,24.2,60.6,1010.2,326.7,1.6,3.1,338.1,0.05,16.1,25.8,"16:55:36",1
"17/09/14","17:10",0.0,23.9,60.6,1010.2,326.9,2.0,4.2,340.4,0.04,15.9,25.7,"17:07:44",1
"17/09/14","17:20",0.0,23.5,62.7,1010.4,331.3,2.1,3.6,339.1,0.02,16.0,25.6,"17:17:52",1
"17/09/14","17:30",0.0,23.1,64.7,1010.4,329.2,2.0,4.0,326.3,0.01,16.1,25.5,"17:20:56",1
"17/09/14","17:40",0.0,22.9,65.5,1010.0,322.3,2.2,4.1,325.5,0.00,16.1,25.2,"17:30:40",1
"17/09/14","17:50",0.0,22.6,67.0,1010.4,327.2,2.1,4.2,318.7,0.00,16.2,25.2,"17:40:32",1
"17/09/14","18:00",0.0,22.3,68.2,1010.2,326.1,1.8,3.7,338.8,0.00,16.2,25.2,"17:52:16",1
"17/09/14","18:10",0.0,22.0,69.7,1010.4,332.7,2.2,3.9,327.9,0.00,16.3,25.1,"18:03:36",1
"17/09/14","18:20",0.0,21.8,70.8,1010.4,327.8,2.0,4.2,337.5,0.00,16.3,25.0,"18:12:16",1
"17/09/14","18:30",0.0,21.7,71.4,1010.4,322.4,1.8,4.4,310.6,0.00,16.3,25.0,"18:24:08",1
"17/09/14","18:40",0.0,21.4,72.3,1010.4,321.2,1.8,3.2,323.1,0.00,16.3,24.8,"18:32:48",1
"17/09/14","18:50",0.0,21.2,73.0,1010.4,334.4,1.8,4.3,348.9,0.00,16.2,24.7,"18:41:20",1
"17/09/14","19:00",0.0,21.0,73.8,1010.9,338.0,1.8,3.3,336.9,0.00,16.2,24.7,"18:51:04",1
"17/09/14","19:10",0.0,20.7,74.4,1011.2,334.6,1.8,3.3,330.4,0.00,16.0,24.7,"19:09:52",1
"17/09/14","19:20",0.0,20.7,73.9,1011.4,326.5,1.8,4.4,329.8,0.00,15.9,24.4,"19:16:48",1
"17/09/14","19:30",0.0,20.6,73.6,1011.4,337.3,1.8,3.4,327.9,0.00,15.8,24.4,"19:23:04",1
"17/09/14","19:40",0.0,20.4,73.6,1011.4,341.4,1.6,3.5,344.0,0.00,15.6,24.2,"19:32:08",1
"17/09/14","19:50",0.0,20.4,73.8,1011.6,331.9,1.6,2.7,340.7,0.00,15.6,24.4,"19:47:36",1
"17/09/14","20:00",0.0,20.2,73.9,1011.6,331.6,1.6,3.2,310.4,0.00,15.4,24.1,"19:55:36",1
"17/09/14","20:10",0.0,20.0,74.4,1011.6,305.6,1.1,2.4,338.5,0.00,15.4,24.2,"20:03:44",1
"17/09/14","20:20",0.0,19.6,77.0,1011.9,311.5,0.7,1.3,339.6,0.00,15.5,24.0,"20:14:24",1
"17/09/14","20:30",0.0,18.9,79.8,1011.9,319.7,1.1,2.0,333.8,0.00,15.4,23.9,"20:29:12",1
"17/09/14","20:40",0.0,18.4,82.1,1011.9,318.9,0.6,1.6,327.0,0.00,15.3,23.7,"20:30:24",1
"17/09/14","20:50",0.0,18.0,83.9,1011.9,298.6,0.6,1.3,314.9,0.00,15.3,23.8,"20:43:36",1
"17/09/14","21:00",0.0,17.8,85.6,1011.9,304.7,1.1,1.9,317.5,0.00,15.4,23.6,"20:50:02",1
"17/09/14","21:10",0.0,17.8,86.4,1012.1,311.2,1.2,2.4,337.1,0.00,15.5,23.5,"21:07:36",1
"17/09/14","21:20",0.0,17.7,86.7,1011.9,317.3,1.1,2.1,333.0,0.00,15.5,23.7,"21:10:48",1
"17/09/14","21:30",0.0,17.6,87.2,1012.1,307.4,1.1,2.6,357.0,0.00,15.5,23.5,"21:29:20",1
"17/09/14","21:40",0.0,17.6,87.4,1011.9,317.6,1.0,2.8,335.4,0.00,15.5,23.2,"21:37:52",1
"17/09/14","21:50",0.0,17.4,87.7,1012.1,323.1,1.2,2.0,334.4,0.00,15.4,23.2,"21:40:40",1
"17/09/14","22:00",0.0,17.2,88.3,1012.1,315.0,1.0,2.4,334.1,0.00,15.3,23.2,"21:54:00",1
"17/09/14","22:10",0.0,17.1,88.7,1012.3,319.0,1.2,2.6,331.6,0.00,15.3,22.9,"22:06:32",1
"17/09/14","22:20",0.0,17.0,89.0,1012.3,328.7,1.3,2.0,354.3,0.00,15.2,23.0,"22:16:48",1
"17/09/14","22:30",0.0,17.2,89.0,1012.3,331.9,1.3,2.1,330.0,0.00,15.4,23.0,"22:20:08",1
"17/09/14","22:40",0.0,17.2,88.4,1012.6,306.1,1.2,1.8,330.9,0.00,15.3,22.9,"22:34:56",1
"17/09/14","22:50",0.0,17.1,88.2,1011.9,329.7,1.3,2.2,325.8,0.00,15.2,22.9,"22:42:32",1
"17/09/14","23:00",0.0,17.0,88.4,1012.3,324.0,1.1,1.7,312.0,0.00,15.1,22.7,"22:52:16",1
"17/09/14","23:10",0.0,16.8,88.6,1012.3,313.0,0.7,1.2,342.3,0.00,14.9,22.6,"23:08:32",1
"17/09/14","23:20",0.0,16.6,89.1,1012.3,314.2,0.8,2.1,325.7,0.00,14.8,22.7,"23:11:52",1
"17/09/14","23:30",0.0,16.5,89.8,1012.3,317.7,0.8,2.2,338.0,0.00,14.9,22.7,"23:22:56",1
"17/09/14","23:40",0.0,16.4,89.9,1012.6,307.7,0.8,1.6,307.7,0.00,14.8,22.5,"23:32:48",1
"17/09/14","23:50",0.0,16.4,90.4,1012.6,312.3,0.8,1.4,339.2,0.00,14.9,22.4,"23:40:40",1
"17/09/14","24:00",0.0,16.3,90.7,1012.3,321.5,0.8,1.8,329.4,0.00,14.8,22.6,"23:50:02",1
